Weather observations for the past three days for
Quantico Marine Corps Airfield - Turner Field
| Date | Time (edt) | Wind (mph) | Vis. (mi.) | Weather | Sky Cond. | Temperature (ºF) | Relative Humidity | Wind Chill (°F) | Heat Index (°F) | Pressure | Precipitation (in) | ||||||
|---|---|---|---|---|---|---|---|---|---|---|---|---|---|---|---|---|---|
| Air | Dwpt | 6 hour | altimeter (in) | sea level (mb) | 1 hr | 3 hr | 6 hr | ||||||||||
| Max. | Min. | ||||||||||||||||
| 01 | 21:56 | W 6 | 8.00 | Fair | CLR | 82.9 | 75.9 | 79% | 91 | 29.98 | 1015.4 | ||||||
| 01 | 20:56 | W 6 | 8.00 | Fair | CLR | 86 | 75 | 70% | 95 | 29.96 | 1014.7 | ||||||
| 01 | 19:56 | SW 6 | 7.00 | Fair | CLR | 90 | 72 | 99 | 90 | 56% | 97 | 29.94 | 1014.0 | ||||
| 01 | 18:56 | Calm | 7.00 | Fair | CLR | 93 | 72 | 50% | 101 | 29.95 | 1014.2 | ||||||
| 01 | 17:56 | Calm | 7.00 | Partly Cloudy | SCT100 | 95 | 71.1 | 46% | 102 | 29.96 | 1014.6 | ||||||
| 01 | 16:56 | Calm | 7.00 | A Few Clouds | FEW080 | 98.1 | 70 | 40% | 105 | 29.96 | 1014.7 | ||||||
| 01 | 15:56 | Calm | 7.00 | Partly Cloudy | SCT060 | 97 | 70 | 42% | 104 | 29.97 | 1015.1 | ||||||
| 01 | 13:56 | SE 7 | 7.00 | Partly Cloudy | FEW035 SCT080 | 93.9 | 75.9 | 93.9 | 78.1 | 56% | 107 | 29.99 | 1015.8 | ||||
| 01 | 11:56 | SE 8 | 7.00 | A Few Clouds | FEW150 | 89.1 | 75.9 | 65% | 100 | 30.03 | 1016.9 | ||||||
| 01 | 08:56 | Calm | 7.00 | A Few Clouds | FEW080 | 80.1 | 73 | 79% | 84 | 30.06 | 1017.9 | ||||||
| 01 | 07:56 | S 3 | 7.00 | A Few Clouds | FEW080 | 79 | 72 | 79 | 75 | 79% | 82 | 30.05 | 1017.6 | ||||
| 01 | 06:56 | S 5 | 5.00 | Fog/Mist | CLR | 75.9 | 72 | 88% | 76 | 30.04 | 1017.3 | ||||||
| 01 | 05:56 | S 3 | 7.00 | Fair | CLR | 75.9 | 73 | 91% | 76 | 30.03 | 1017.1 | ||||||
| 01 | 04:56 | W 3 | 6.00 | Fog/Mist | CLR | 75 | 73.9 | 96% | 73 | 30.04 | 1017.3 | ||||||
| 01 | 03:56 | W 3 | 6.00 | Fog/Mist | CLR | 75.9 | 73 | 91% | 76 | 30.04 | 1017.3 | ||||||
| 01 | 02:56 | Calm | 7.00 | Fair | CLR | 78.1 | 73 | 85% | 81 | 30.05 | 1017.6 | ||||||
| 01 | 01:56 | Calm | 7.00 | Fair | CLR | 78.1 | 73.9 | 82.9 | 75.9 | 87% | 81 | 30.06 | 1018.0 | ||||
| 01 | 00:56 | W 7 | 5.00 | Fog/Mist | CLR | 77 | 75 | 94% | 78 | 30.07 | 1018.5 | ||||||
| 31 | 23:56 | Calm | 5.00 | Fog/Mist | OVC095 | 77 | 75 | 94% | 78 | 30.08 | 1018.7 | ||||||
| 31 | 22:56 | W 5 | 6.00 | Fog/Mist | CLR | 78.1 | 75 | 90% | 81 | 30.08 | 1018.6 | ||||||
| 31 | 20:56 | Calm | 7.00 | Fair | CLR | 81 | 75.9 | 85% | 87 | 30.07 | 1018.3 | ||||||
| 31 | 18:56 | SE 3 | 7.00 | Overcast | OVC080 | 84 | 77 | 80% | 94 | 30.07 | 1018.3 | ||||||
| 31 | 17:56 | NE 3 | 7.00 | Overcast | OVC080 | 86 | 73 | 65% | 93 | 30.08 | 1018.6 | ||||||
| 31 | 16:56 | Calm | 7.00 | Partly Cloudy | FEW030 SCT090 | 88 | 72 | 59% | 95 | 30.07 | 1018.3 | ||||||
| 31 | 14:56 | Calm | 7.00 | A Few Clouds | FEW035 FEW080 | 88 | 70 | 55% | 93 | 30.09 | 1018.9 | ||||||
| 31 | 13:56 | NE 5 | 7.00 | Partly Cloudy | FEW060 SCT120 | 89.1 | 73 | 89.1 | 73 | 59% | 97 | 30.1 | 1019.3 | ||||
| 31 | 12:56 | Vrbl 7 | 7.00 | Fair | CLR | 87.1 | 73 | 63% | 95 | 30.11 | 1019.8 | ||||||
| 31 | 11:56 | Vrbl 7 | 7.00 | A Few Clouds | FEW060 FEW120 | 86 | 73.9 | 67% | 94 | 30.12 | 1019.9 | ||||||
| 31 | 10:56 | N 3 | 7.00 | A Few Clouds | FEW120 | 82.9 | 73 | 72% | 89 | 30.12 | 1019.9 | ||||||
| 31 | 09:56 | NE 7 | 7.00 | A Few Clouds | FEW120 | 80.1 | 72 | 76% | 84 | 30.11 | 1019.8 | ||||||
| 31 | 08:56 | N 7 | 7.00 | A Few Clouds | FEW150 | 78.1 | 71.1 | 79% | 80 | 30.12 | 1019.9 | ||||||
| 31 | 07:56 | W 7 | 7.00 | Fair | CLR | 73 | 69.1 | 73 | 71.1 | 87% | 30.11 | 1019.6 | |||||
| 31 | 04:56 | W 7 | 7.00 | Fair | CLR | 71.1 | 69.1 | 94% | 30.08 | 1018.6 | |||||||
| 31 | 03:56 | W 5 | 7.00 | Fair | CLR | 72 | 70 | 94% | 30.08 | 1018.6 | |||||||
| 31 | 02:56 | W 5 | 7.00 | Fair | CLR | 73 | 70 | 90% | 30.07 | 1018.4 | |||||||
| 30 | 23:56 | SW 3 | 8.00 | Fair | CLR | 75.9 | 68 | 77% | 77 | 30.09 | 1019.1 | ||||||
| 30 | 22:56 | W 3 | 8.00 | Fair | CLR | 75.9 | 70 | 82% | 77 | 30.1 | 1019.5 | ||||||
| 30 | 21:56 | W 5 | 8.00 | Fair | CLR | 78.1 | 70 | 76% | 80 | 30.11 | 1019.5 | ||||||
| 30 | 20:56 | NW 3 | 9.00 | A Few Clouds | FEW120 | 80.1 | 66.9 | 64% | 82 | 30.11 | 1019.6 | ||||||
| 30 | 19:56 | SW 6 | 8.00 | Overcast | OVC110 | 82 | 68 | 90 | 82 | 63% | 85 | 30.09 | 1019.1 | ||||
| 30 | 18:56 | S 7 | 7.00 | Overcast | OVC110 | 84.9 | 70 | 61% | 89 | 30.09 | 1018.8 | ||||||
| 30 | 16:56 | S 13 | 7.00 | Fair | CLR | 89.1 | 73 | 59% | 97 | 30.07 | 1018.4 | ||||||
| 30 | 13:56 | S 10 | 7.00 | Fair | CLR | 88 | 71.1 | 88 | 73 | 57% | 94 | 30.15 | 1021.0 | ||||
| 30 | 12:56 | S 10 | 7.00 | Mostly Cloudy | SCT034 BKN070 | 86 | 71.1 | 61% | 92 | 30.17 | 1021.8 | ||||||
| 30 | 10:56 | S 10 | 6.00 | Partly Cloudy with Haze | SCT025 | 82.9 | 71.1 | 67% | 88 | 30.19 | 1022.4 | ||||||
| 30 | 08:56 | S 8 | 6.00 | Mostly Cloudy with Haze | BKN008 BKN016 | 75.9 | 71.1 | 85% | 76 | 30.21 | 1023.2 | ||||||
| 30 | 07:56 | S 7 | 5.00 | Fog/Mist | OVC006 | 73 | 70 | 75.9 | 71.1 | 90% | 30.22 | 1023.4 | |||||
| 30 | 06:56 | S 8 | 5.00 | Fog/Mist | OVC006 | 72 | 70 | 94% | 30.22 | 1023.4 | |||||||
| 30 | 05:56 | SW 7 | 5.00 | Fog/Mist | OVC007 | 72 | 70 | 94% | 30.21 | 1023.2 | |||||||
| 30 | 04:56 | SW 5 | 6.00 | Fog/Mist | OVC007 | 72 | 69.1 | 91% | 30.21 | 1023.0 | |||||||
| 30 | 03:56 | SW 7 | 6.00 | Fog/Mist | OVC010 | 73 | 70 | 90% | 30.21 | 1023.0 | |||||||
| 30 | 01:56 | S 12 | 7.00 | Mostly Cloudy | SCT013 BKN095 | 75.9 | 71.1 | 77 | 71.1 | 85% | 76 | 30.22 | 1023.4 | ||||
| 30 | 00:56 | S 12 | 8.00 | Overcast | FEW050 OVC090 | 77 | 70 | 79% | 79 | 30.22 | 1023.4 | ||||||
| 29 | 23:56 | Calm | 8.00 | Mostly Cloudy | BKN090 | 71.1 | 66.9 | 87% | 30.22 | 1023.3 | |||||||
| Date | Time (edt) | Wind (mph) | Vis. (mi.) | Weather | Sky Cond. | Air | Dwpt | Max. | Min. | Relative Humidity | Wind Chill (°F) | Heat Index (°F) | altimeter (in) | sea level (mb) | 1 hr | 3 hr | 6 hr |
| 6 hour | |||||||||||||||||
| Temperature (ºF) | Pressure | Precipitation (in) | |||||||||||||||